Weather History for KEFK - September, 2013

Change the Weather History Date:

Saturday, September 21, 2013

  Actual Average Record
Temperature  
Mean Temperature 62 °F -  
Max Temperature 72 °F 66 °F 87 °F (1965)
Min Temperature 52 °F 46 °F 29 °F (1956)
Degree Days  
Heating Degree Days 3    
Growing Degree Days 12 (Base 50)    
Moisture  
Dew Point 51 °F    
Average Humidity 67    
Maximum Humidity 86    
Minimum Humidity 35    
Precipitation  
Precipitation 0.00 in - - ()
Sea Level Pressure  
Sea Level Pressure 29.78 in    
Wind  
Wind Speed 10 mph (South)    
Max Wind Speed 21 mph    
Max Gust Speed 29 mph    
Visibility 10 miles    
Events      
Averages and records for this station are not official NWS values.
T = Trace of Precipitation, MM = Missing Value Source: NWS Daily Summary

Daily Weather History Graph

Daily Weather History Graph

Search for Another Location

Airport or City:

Trip Planner

Search our weather history database for the weather conditions in past years. The results will help you decide how hot, cold, wet, or windy it might be!

Date:

Astronomy

Sep. 21, 2013 Rise Set
Actual Time 6:35 AM EDT 6:47 PM EDT
Civil Twilight 6:05 AM EDT 7:17 PM EDT
Nautical Twilight 5:31 AM EDT 7:51 PM EDT
Astronomical Twilight 4:55 AM EDT 8:26 PM EDT
Moon 7:48 PM EDT (9/21) 8:58 AM EDT (9/21)
Length of Visible Light 13h 11m
Length of Day
12h 12m
Waning Gibbous, 94% of the Moon is Illuminated
Sep 21
Waning Gibbous
Sep 26
Last Quarter
Oct 4
New
Oct 11
First Quarter
Oct 18
Full

Hourly Weather History & Observations

Time (EDT) Temp. Dew Point Humidity Pressure Visibility Wind Dir Wind Speed Gust Speed Precip Events Conditions
12:15 AM 59.0 °F 50.7 °F 74% 29.94 in 10.0 mi SSW 6.9 mph - N/A   Clear
12:35 AM 59.7 °F 51.3 °F 74% 29.94 in 10.0 mi South 11.5 mph 16.1 mph N/A   Clear
12:55 AM 60.8 °F 51.4 °F 71% 29.93 in 10.0 mi South 9.2 mph 17.3 mph N/A   Clear
1:15 AM 58.1 °F 50.4 °F 75% 29.95 in 10.0 mi SW 4.6 mph - N/A   Clear
1:35 AM 58.5 °F 50.0 °F 73% 29.94 in 10.0 mi Calm Calm - N/A   Clear
1:55 AM 58.1 °F 50.4 °F 75% 29.94 in 10.0 mi South 6.9 mph - N/A   Clear
2:15 AM 58.3 °F 50.9 °F 76% 29.93 in 10.0 mi SSE 9.2 mph - N/A   Clear
2:35 AM 58.3 °F 50.9 °F 76% 29.93 in 10.0 mi SSW 5.8 mph - N/A   Clear
2:55 AM 55.9 °F 50.2 °F 81% 29.92 in 10.0 mi SSE 8.1 mph - N/A   Clear
3:15 AM 56.3 °F 50.0 °F 79% 29.92 in 10.0 mi SSE 6.9 mph - N/A   Clear
3:35 AM 57.4 °F 50.2 °F 77% 29.91 in 10.0 mi South 9.2 mph - N/A   Clear
3:55 AM 57.6 °F 50.0 °F 76% 29.90 in 10.0 mi South 5.8 mph - N/A   Clear
4:15 AM 57.2 °F 50.2 °F 77% 29.89 in 10.0 mi South 5.8 mph - N/A   Clear
4:35 AM 56.7 °F 50.4 °F 79% 29.89 in 10.0 mi South 8.1 mph - N/A   Clear
4:55 AM 53.6 °F 48.9 °F 84% 29.89 in 10.0 mi SSW 3.5 mph - N/A   Clear
5:15 AM 55.8 °F 50.0 °F 81% 29.88 in 10.0 mi South 5.8 mph - N/A   Clear
5:35 AM 54.9 °F 49.8 °F 83% 29.87 in 10.0 mi South 5.8 mph - N/A   Clear
5:55 AM 55.8 °F 50.5 °F 83% 29.87 in 10.0 mi South 6.9 mph - N/A   Clear
6:15 AM 56.3 °F 50.7 °F 82% 29.87 in 10.0 mi SSW 6.9 mph - N/A   Clear
6:35 AM 53.4 °F 49.1 °F 85% 29.86 in 10.0 mi SW 5.8 mph - N/A   Clear
6:55 AM 52.5 °F 48.6 °F 86% 29.86 in 10.0 mi SW 3.5 mph - N/A   Clear
7:15 AM 53.6 °F 49.5 °F 86% 29.87 in 10.0 mi SSW 6.9 mph - N/A   Clear
7:35 AM 54.1 °F 50.0 °F 86% 29.86 in 10.0 mi SSW 8.1 mph - N/A   Clear
7:55 AM 55.0 °F 50.5 °F 85% 29.86 in 10.0 mi South 5.8 mph - N/A   Clear
8:15 AM 57.0 °F 51.3 °F 81% 29.85 in 10.0 mi South 8.1 mph - N/A   Clear
8:35 AM 58.5 °F 51.4 °F 77% 29.85 in 10.0 mi South 5.8 mph - N/A   Clear
8:55 AM 60.3 °F 51.6 °F 73% 29.83 in 10.0 mi South 9.2 mph - N/A   Clear
9:15 AM 61.2 °F 51.8 °F 71% 29.83 in 10.0 mi SSE 11.5 mph 21.9 mph N/A   Clear
9:35 AM 62.1 °F 52.0 °F 70% 29.83 in 10.0 mi SSE 13.8 mph - N/A   Clear
9:55 AM 63.5 °F 52.7 °F 68% 29.82 in 10.0 mi SSE 12.7 mph 20.7 mph N/A   Clear
10:15 AM 65.7 °F 53.1 °F 64% 29.81 in 10.0 mi SSE 8.1 mph 17.3 mph N/A   Clear
10:35 AM 63.9 °F 52.5 °F 67% 29.81 in 10.0 mi SSE 18.4 mph 24.2 mph N/A   Clear
10:55 AM 64.0 °F 52.9 °F 67% 29.80 in 10.0 mi SSE 17.3 mph - N/A   Clear
11:15 AM 64.9 °F 52.9 °F 65% 29.80 in 10.0 mi SSE 20.7 mph 24.2 mph N/A   Clear
11:35 AM 65.3 °F 52.3 °F 63% 29.80 in 10.0 mi SSE 20.7 mph 25.3 mph N/A   Clear
11:55 AM 66.2 °F 52.9 °F 62% 29.78 in 10.0 mi SE 15.0 mph 24.2 mph N/A   Clear
12:15 PM 66.4 °F 51.3 °F 58% 29.78 in 10.0 mi SSE 16.1 mph 24.2 mph N/A   Clear
12:35 PM 67.5 °F 50.2 °F 54% 29.77 in 10.0 mi SSE 15.0 mph 24.2 mph N/A   Clear
12:55 PM 68.4 °F 49.5 °F 51% 29.76 in 10.0 mi South 18.4 mph 25.3 mph N/A   Clear
1:15 PM 68.5 °F 47.3 °F 47% 29.74 in 10.0 mi South 16.1 mph 26.5 mph N/A   Clear
1:35 PM 69.3 °F 46.6 °F 44% 29.73 in 10.0 mi SSE 17.3 mph 24.2 mph N/A   Clear
1:55 PM 70.9 °F 46.8 °F 42% 29.73 in 10.0 mi SSE 17.3 mph 27.6 mph N/A   Clear
2:15 PM 71.1 °F 45.1 °F 39% 29.72 in 10.0 mi South 13.8 mph 24.2 mph N/A   Clear
2:35 PM 72.3 °F 47.3 °F 41% 29.71 in 10.0 mi SSE 18.4 mph 23.0 mph N/A   Clear
2:55 PM 71.6 °F 44.2 °F 37% 29.71 in 10.0 mi South 15.0 mph 26.5 mph N/A   Clear
3:15 PM 71.8 °F 43.7 °F 36% 29.70 in 10.0 mi SSE 19.6 mph 24.2 mph N/A   Clear
3:35 PM 71.8 °F 42.4 °F 35% 29.69 in 10.0 mi South 18.4 mph 26.5 mph N/A   Clear
3:55 PM 70.7 °F 44.6 °F 39% 29.68 in 10.0 mi South 10.4 mph 19.6 mph N/A   Clear
4:15 PM 70.9 °F 43.2 °F 37% 29.68 in 10.0 mi South 13.8 mph 26.5 mph N/A   Clear
4:35 PM 70.7 °F 45.9 °F 41% 29.68 in 10.0 mi South 18.4 mph 27.6 mph N/A   Clear
4:55 PM 69.6 °F 48.2 °F 46% 29.68 in 10.0 mi South 12.7 mph 28.8 mph N/A   Clear
5:15 PM 69.4 °F 50.2 °F 50% 29.68 in 10.0 mi SSE 8.1 mph 17.3 mph N/A   Clear
5:35 PM 68.2 °F 51.3 °F 55% 29.67 in 10.0 mi SSE 5.8 mph - N/A   Scattered Clouds
5:55 PM 67.8 °F 52.0 °F 57% 29.67 in 10.0 mi South 12.7 mph 17.3 mph N/A   Scattered Clouds
6:15 PM 67.6 °F 52.3 °F 58% 29.66 in 10.0 mi South 10.4 mph 17.3 mph N/A   Clear
6:35 PM 66.7 °F 52.7 °F 61% 29.66 in 10.0 mi SSE 13.8 mph 18.4 mph N/A   Clear
6:55 PM 66.7 °F 54.3 °F 64% 29.66 in 10.0 mi SSE 16.1 mph 25.3 mph N/A   Clear
7:15 PM 65.5 °F 55.9 °F 71% 29.66 in 10.0 mi SSE 11.5 mph 24.2 mph N/A   Clear
7:35 PM 64.0 °F 56.7 °F 77% 29.67 in 10.0 mi SSE 13.8 mph 21.9 mph N/A   Clear
7:55 PM 63.9 °F 57.2 °F 79% 29.68 in 10.0 mi SSE 9.2 mph 20.7 mph N/A   Scattered Clouds
8:15 PM 64.2 °F 56.7 °F 76% 29.67 in 10.0 mi SSE 9.2 mph - N/A   Overcast
8:35 PM 64.9 °F 56.7 °F 74% 29.67 in 10.0 mi South 5.8 mph - N/A   Overcast
8:55 PM 64.0 °F 56.5 °F 76% 29.67 in 10.0 mi SSE 6.9 mph - N/A   Overcast
9:15 PM 63.9 °F 56.7 °F 77% 29.65 in 10.0 mi SSE 9.2 mph - N/A   Overcast
9:35 PM 64.6 °F 56.3 °F 74% 29.65 in 10.0 mi South 13.8 mph 17.3 mph N/A   Scattered Clouds
9:55 PM 65.3 °F 56.1 °F 72% 29.65 in 10.0 mi South 11.5 mph 18.4 mph N/A   Clear
10:15 PM 64.6 °F 56.3 °F 74% 29.64 in 10.0 mi SSE 8.1 mph 18.4 mph N/A   Clear
10:35 PM 65.3 °F 56.3 °F 73% 29.63 in 10.0 mi SE 16.1 mph 20.7 mph N/A   Mostly Cloudy
10:55 PM 65.3 °F 56.3 °F 73% 29.61 in 10.0 mi SSE 13.8 mph 19.6 mph N/A   Overcast
11:15 PM 64.8 °F 56.3 °F 74% 29.61 in 10.0 mi SSE 13.8 mph 20.7 mph N/A   Overcast
11:35 PM 63.7 °F 57.2 °F 79% 29.60 in 10.0 mi SSE 16.1 mph - N/A   Drizzle
11:55 PM 63.7 °F 56.8 °F 78% 29.59 in 10.0 mi SSE 15.0 mph 23.0 mph N/A   Overcast